Year,Month,Day,Hour,Minute,Value (Times are PST for temperature in C)
2015,05,25,00,00,14.00
2015,05,25,00,01,14.00
2015,05,25,00,02,13.90
2015,05,25,00,03,13.90
2015,05,25,00,04,13.90
2015,05,25,00,05,13.90
2015,05,25,00,06,13.90
2015,05,25,00,07,13.90
2015,05,25,00,08,13.80
2015,05,25,00,09,13.80
2015,05,25,00,10,13.80
2015,05,25,00,11,13.80
2015,05,25,00,12,13.80
2015,05,25,00,13,13.80
2015,05,25,00,14,13.80
2015,05,25,00,15,13.70
2015,05,25,00,16,13.70
2015,05,25,00,17,13.70
2015,05,25,00,18,13.70
2015,05,25,00,19,13.70
2015,05,25,00,20,13.70
2015,05,25,00,21,13.60
2015,05,25,00,22,13.60
2015,05,25,00,23,13.60
2015,05,25,00,24,13.60
2015,05,25,00,25,13.60
2015,05,25,00,26,13.50
2015,05,25,00,27,13.50
2015,05,25,00,28,13.50
2015,05,25,00,29,13.50
2015,05,25,00,30,13.50
2015,05,25,00,31,13.40
2015,05,25,00,32,13.40
2015,05,25,00,33,13.40
2015,05,25,00,34,13.40
2015,05,25,00,35,13.40
2015,05,25,00,36,13.40
2015,05,25,00,37,13.30
2015,05,25,00,38,13.30
2015,05,25,00,39,13.30
2015,05,25,00,40,13.30
2015,05,25,00,41,13.30
2015,05,25,00,42,13.30
2015,05,25,00,43,13.30
2015,05,25,00,44,13.20
2015,05,25,00,45,13.20
2015,05,25,00,46,13.20
2015,05,25,00,47,13.20
2015,05,25,00,48,13.20
2015,05,25,00,49,13.20
2015,05,25,00,50,13.20
2015,05,25,00,51,13.20
2015,05,25,00,52,13.20
2015,05,25,00,53,13.10
2015,05,25,00,54,13.10
2015,05,25,00,55,13.10
2015,05,25,00,56,13.10
2015,05,25,00,57,13.10
2015,05,25,00,58,13.00
2015,05,25,00,59,13.00
2015,05,25,01,00,13.00
2015,05,25,01,01,13.00
2015,05,25,01,02,12.90
2015,05,25,01,03,12.90
2015,05,25,01,04,12.90
2015,05,25,01,05,12.90
2015,05,25,01,06,12.90
2015,05,25,01,07,12.80
2015,05,25,01,08,12.80
2015,05,25,01,09,12.80
2015,05,25,01,10,12.80
2015,05,25,01,11,12.80
2015,05,25,01,12,12.80
2015,05,25,01,13,12.80
2015,05,25,01,14,12.70
2015,05,25,01,15,12.70
2015,05,25,01,16,12.70
2015,05,25,01,17,12.70
2015,05,25,01,18,12.70
2015,05,25,01,19,12.70
2015,05,25,01,20,12.70
2015,05,25,01,21,12.60
2015,05,25,01,22,12.60
2015,05,25,01,23,12.60
2015,05,25,01,24,12.60
2015,05,25,01,25,12.60
2015,05,25,01,26,12.60
2015,05,25,01,27,12.60
2015,05,25,01,28,12.60
2015,05,25,01,29,12.60
2015,05,25,01,30,12.60
2015,05,25,01,31,12.60
2015,05,25,01,32,12.60
2015,05,25,01,33,12.50
2015,05,25,01,34,12.50
2015,05,25,01,35,12.50
2015,05,25,01,36,12.50
2015,05,25,01,37,12.50
2015,05,25,01,38,12.40
2015,05,25,01,39,12.40
2015,05,25,01,40,12.40
2015,05,25,01,41,12.40
2015,05,25,01,42,12.40
2015,05,25,01,43,12.30
2015,05,25,01,44,12.30
2015,05,25,01,45,12.30
2015,05,25,01,46,12.30
2015,05,25,01,47,12.30
2015,05,25,01,48,12.30
2015,05,25,01,49,12.30
2015,05,25,01,50,12.30
2015,05,25,01,51,12.20
2015,05,25,01,52,12.20
2015,05,25,01,53,12.20
2015,05,25,01,54,12.20
2015,05,25,01,55,12.20
2015,05,25,01,56,12.10
2015,05,25,01,57,12.10
2015,05,25,01,58,12.10
2015,05,25,01,59,12.10
2015,05,25,02,00,12.10
2015,05,25,02,01,12.00
2015,05,25,02,02,12.00
2015,05,25,02,03,12.00
2015,05,25,02,04,12.00
2015,05,25,02,05,12.00
2015,05,25,02,06,11.90
2015,05,25,02,07,11.90
2015,05,25,02,08,11.90
2015,05,25,02,09,11.90
2015,05,25,02,10,11.90
2015,05,25,02,11,11.90
2015,05,25,02,12,11.90
2015,05,25,02,13,11.90
2015,05,25,02,14,11.80
2015,05,25,02,15,11.90
2015,05,25,02,16,11.80
2015,05,25,02,17,11.80
2015,05,25,02,18,11.80
2015,05,25,02,19,11.80
2015,05,25,02,20,11.80
2015,05,25,02,21,11.80
2015,05,25,02,22,11.90
2015,05,25,02,23,11.90
2015,05,25,02,24,11.90
2015,05,25,02,25,11.90
2015,05,25,02,26,11.90
2015,05,25,02,27,11.90
2015,05,25,02,28,11.90
2015,05,25,02,29,11.90
2015,05,25,02,30,11.90
2015,05,25,02,31,11.90
2015,05,25,02,32,11.90
2015,05,25,02,33,11.90
2015,05,25,02,34,11.90
2015,05,25,02,35,11.80
2015,05,25,02,36,11.80
2015,05,25,02,37,11.80
2015,05,25,02,38,11.80
2015,05,25,02,39,11.80
2015,05,25,02,40,11.80
2015,05,25,02,41,11.80
2015,05,25,02,42,11.80
2015,05,25,02,43,11.80
2015,05,25,02,44,11.80
2015,05,25,02,45,11.80
2015,05,25,02,46,11.80
2015,05,25,02,47,11.80
2015,05,25,02,48,11.80
2015,05,25,02,49,11.80
2015,05,25,02,50,11.80
2015,05,25,02,51,11.80
2015,05,25,02,52,11.80
2015,05,25,02,53,11.80
2015,05,25,02,54,11.80
2015,05,25,02,55,11.80
2015,05,25,02,56,11.80
2015,05,25,02,57,11.80
2015,05,25,02,58,11.70
2015,05,25,02,59,11.70
2015,05,25,03,00,11.70
2015,05,25,03,01,11.70
2015,05,25,03,02,11.70
2015,05,25,03,03,11.70
2015,05,25,03,04,11.70
2015,05,25,03,05,11.70
2015,05,25,03,06,11.70
2015,05,25,03,07,11.70
2015,05,25,03,08,11.70
2015,05,25,03,09,11.70
2015,05,25,03,10,11.60
2015,05,25,03,11,11.70
2015,05,25,03,12,11.60
2015,05,25,03,13,11.60
2015,05,25,03,14,11.60
2015,05,25,03,15,11.60
2015,05,25,03,16,11.60
2015,05,25,03,17,11.60
2015,05,25,03,18,11.60
2015,05,25,03,19,11.60
2015,05,25,03,20,11.60
2015,05,25,03,21,11.60
2015,05,25,03,22,11.60
2015,05,25,03,23,11.60
2015,05,25,03,24,11.60
2015,05,25,03,25,11.60
2015,05,25,03,26,11.60
2015,05,25,03,27,11.60
2015,05,25,03,28,11.60
2015,05,25,03,29,11.60
2015,05,25,03,30,11.60
2015,05,25,03,31,11.60
2015,05,25,03,32,11.60
2015,05,25,03,33,11.60
2015,05,25,03,34,11.60
2015,05,25,03,35,11.60
2015,05,25,03,36,11.60
2015,05,25,03,37,11.60
2015,05,25,03,38,11.60
2015,05,25,03,39,11.60
2015,05,25,03,40,11.60
2015,05,25,03,41,11.60
2015,05,25,03,42,11.60
2015,05,25,03,43,11.60
2015,05,25,03,44,11.60
2015,05,25,03,45,11.60
2015,05,25,03,46,11.60
2015,05,25,03,47,11.60
2015,05,25,03,48,11.70
2015,05,25,03,49,11.70
2015,05,25,03,50,11.70
2015,05,25,03,51,11.70
2015,05,25,03,52,11.70
2015,05,25,03,53,11.70
2015,05,25,03,54,11.70
2015,05,25,03,55,11.70
2015,05,25,03,56,11.70
2015,05,25,03,57,11.70
2015,05,25,03,58,11.70
2015,05,25,03,59,11.70
2015,05,25,04,00,11.70
2015,05,25,04,01,11.70
2015,05,25,04,02,11.70
2015,05,25,04,03,11.70
2015,05,25,04,04,11.70
2015,05,25,04,05,11.70
2015,05,25,04,06,11.70
2015,05,25,04,07,11.70
2015,05,25,04,08,11.70
2015,05,25,04,09,11.70
2015,05,25,04,10,11.70
2015,05,25,04,11,11.70
2015,05,25,04,12,11.70
2015,05,25,04,13,11.70
2015,05,25,04,14,11.70
2015,05,25,04,15,11.70
2015,05,25,04,16,11.70
2015,05,25,04,17,11.70
2015,05,25,04,18,11.70
2015,05,25,04,19,11.70
2015,05,25,04,20,11.70
2015,05,25,04,21,11.70
2015,05,25,04,22,11.70
2015,05,25,04,23,11.60
2015,05,25,04,24,11.60
2015,05,25,04,25,11.60
2015,05,25,04,26,11.60
2015,05,25,04,27,11.60
2015,05,25,04,28,11.60
2015,05,25,04,29,11.60
2015,05,25,04,30,11.60
2015,05,25,04,31,11.60
2015,05,25,04,32,11.50
2015,05,25,04,33,11.50
2015,05,25,04,34,11.50
2015,05,25,04,35,11.40
2015,05,25,04,36,11.40
2015,05,25,04,37,11.40
2015,05,25,04,38,11.40
2015,05,25,04,39,11.40
2015,05,25,04,40,11.40
2015,05,25,04,41,11.30
2015,05,25,04,42,11.30
2015,05,25,04,43,11.30
2015,05,25,04,44,11.30
2015,05,25,04,45,11.30
2015,05,25,04,46,11.30
2015,05,25,04,47,11.30
2015,05,25,04,48,11.30
2015,05,25,04,49,11.30
2015,05,25,04,50,11.30
2015,05,25,04,51,11.30
2015,05,25,04,52,11.30
2015,05,25,04,53,11.30
2015,05,25,04,54,11.30
2015,05,25,04,55,11.30
2015,05,25,04,56,11.30
2015,05,25,04,57,11.30
2015,05,25,04,58,11.30
2015,05,25,04,59,11.30
2015,05,25,05,00,11.30
2015,05,25,05,01,11.30
2015,05,25,05,02,11.30
2015,05,25,05,03,11.30
2015,05,25,05,04,11.30
2015,05,25,05,05,11.30
2015,05,25,05,06,11.30
2015,05,25,05,07,11.40
2015,05,25,05,08,11.40
2015,05,25,05,09,11.40
2015,05,25,05,10,11.40
2015,05,25,05,11,11.40
2015,05,25,05,12,11.40
2015,05,25,05,13,11.40
2015,05,25,05,14,11.40
2015,05,25,05,15,11.40
2015,05,25,05,16,11.40
2015,05,25,05,17,11.40
2015,05,25,05,18,11.40
2015,05,25,05,19,11.40
2015,05,25,05,20,11.40
2015,05,25,05,21,11.40
2015,05,25,05,22,11.40
2015,05,25,05,23,11.50
2015,05,25,05,24,11.50
2015,05,25,05,25,11.50
2015,05,25,05,26,11.50
2015,05,25,05,27,11.60
2015,05,25,05,28,11.60
2015,05,25,05,29,11.60
2015,05,25,05,30,11.70
2015,05,25,05,31,11.70
2015,05,25,05,32,11.70
2015,05,25,05,33,11.70
2015,05,25,05,34,11.70
2015,05,25,05,35,11.80
2015,05,25,05,36,11.80
2015,05,25,05,37,11.80
2015,05,25,05,38,11.80
2015,05,25,05,39,11.80
2015,05,25,05,40,11.80
2015,05,25,05,41,11.80
2015,05,25,05,42,11.80
2015,05,25,05,43,11.80
2015,05,25,05,44,11.90
2015,05,25,05,45,11.90
2015,05,25,05,46,11.90
2015,05,25,05,47,11.90
2015,05,25,05,48,11.90
2015,05,25,05,49,11.90
2015,05,25,05,50,11.90
2015,05,25,05,51,11.90
2015,05,25,05,52,11.90
2015,05,25,05,53,12.00
2015,05,25,05,54,12.00
2015,05,25,05,55,12.00
2015,05,25,05,56,12.00
2015,05,25,05,57,12.10
2015,05,25,05,58,12.10
2015,05,25,05,59,12.10
2015,05,25,06,00,12.10
2015,05,25,06,01,12.10
2015,05,25,06,02,12.10
2015,05,25,06,03,12.10
2015,05,25,06,04,12.20
2015,05,25,06,05,12.20
2015,05,25,06,06,12.20
2015,05,25,06,07,12.20
2015,05,25,06,08,12.20
2015,05,25,06,09,12.20
2015,05,25,06,10,12.20
2015,05,25,06,11,12.20
2015,05,25,06,12,12.20
2015,05,25,06,13,12.20
2015,05,25,06,14,12.20
2015,05,25,06,15,12.20
2015,05,25,06,16,12.20
2015,05,25,06,17,12.20
2015,05,25,06,18,12.20
2015,05,25,06,19,12.30
2015,05,25,06,20,12.30
2015,05,25,06,21,12.30
2015,05,25,06,22,12.30
2015,05,25,06,23,12.30
2015,05,25,06,24,12.30
2015,05,25,06,25,12.30
2015,05,25,06,26,12.30
2015,05,25,06,27,12.30
2015,05,25,06,28,12.30
2015,05,25,06,29,12.30
2015,05,25,06,30,12.30
2015,05,25,06,31,12.30
2015,05,25,06,32,12.30
2015,05,25,06,33,12.30
2015,05,25,06,34,12.30
2015,05,25,06,35,12.30
2015,05,25,06,36,12.30
2015,05,25,06,37,12.30
2015,05,25,06,38,12.30
2015,05,25,06,39,12.30
2015,05,25,06,40,12.30
2015,05,25,06,41,12.30
2015,05,25,06,42,12.30
2015,05,25,06,43,12.30
2015,05,25,06,44,12.30
2015,05,25,06,45,12.30
2015,05,25,06,46,12.30
2015,05,25,06,47,12.30
2015,05,25,06,48,12.30
2015,05,25,06,49,12.30
2015,05,25,06,50,12.30
2015,05,25,06,51,12.30
2015,05,25,06,52,12.40
2015,05,25,06,53,12.40
2015,05,25,06,54,12.40
2015,05,25,06,55,12.40
2015,05,25,06,56,12.50
2015,05,25,06,57,12.50
2015,05,25,06,58,12.50
2015,05,25,06,59,12.60
2015,05,25,07,00,12.60
2015,05,25,07,01,12.60
2015,05,25,07,02,12.70
2015,05,25,07,03,12.70
2015,05,25,07,04,12.70
2015,05,25,07,05,12.80
2015,05,25,07,06,12.80
2015,05,25,07,07,12.80
2015,05,25,07,08,12.80
2015,05,25,07,09,12.90
2015,05,25,07,10,12.90
2015,05,25,07,11,12.90
2015,05,25,07,12,12.90
2015,05,25,07,13,13.00
2015,05,25,07,14,13.00
2015,05,25,07,15,13.00
2015,05,25,07,16,13.00
2015,05,25,07,17,13.00
2015,05,25,07,18,13.00
2015,05,25,07,19,13.00
2015,05,25,07,20,13.00
2015,05,25,07,21,13.00
2015,05,25,07,22,13.10
2015,05,25,07,23,13.10
2015,05,25,07,24,13.10
2015,05,25,07,25,13.10
2015,05,25,07,26,13.10
2015,05,25,07,27,13.10
2015,05,25,07,28,13.10
2015,05,25,07,29,13.10
2015,05,25,07,30,13.10
2015,05,25,07,31,13.20
2015,05,25,07,32,13.20
2015,05,25,07,33,13.20
2015,05,25,07,34,13.20
2015,05,25,07,35,13.20
2015,05,25,07,36,13.20
2015,05,25,07,37,13.20
2015,05,25,07,38,13.30
2015,05,25,07,39,13.30
2015,05,25,07,40,13.30
2015,05,25,07,41,13.30
2015,05,25,07,42,13.40
2015,05,25,07,43,13.40
2015,05,25,07,44,13.40
2015,05,25,07,45,13.50
2015,05,25,07,46,13.50
2015,05,25,07,47,13.50
2015,05,25,07,48,13.50
2015,05,25,07,49,13.50
2015,05,25,07,50,13.50
2015,05,25,07,51,13.50
2015,05,25,07,52,13.60
2015,05,25,07,53,13.60
2015,05,25,07,54,13.60
2015,05,25,07,55,13.60
2015,05,25,07,56,13.60
2015,05,25,07,57,13.60
2015,05,25,07,58,13.60
2015,05,25,07,59,13.60
2015,05,25,08,00,13.60
2015,05,25,08,01,13.60
2015,05,25,08,02,13.70
2015,05,25,08,03,13.70
2015,05,25,08,04,13.80
2015,05,25,08,05,13.80
2015,05,25,08,06,13.80
2015,05,25,08,07,13.80
2015,05,25,08,08,13.70
2015,05,25,08,09,13.70
2015,05,25,08,10,13.70
2015,05,25,08,11,13.60
2015,05,25,08,12,13.60
2015,05,25,08,13,13.70
2015,05,25,08,14,13.70
2015,05,25,08,15,13.70
2015,05,25,08,16,13.70
2015,05,25,08,17,13.70
2015,05,25,08,18,13.70
2015,05,25,08,19,13.70
2015,05,25,08,20,13.70
2015,05,25,08,21,13.80
2015,05,25,08,22,13.80
2015,05,25,08,23,13.80
2015,05,25,08,24,13.80
2015,05,25,08,25,13.80
2015,05,25,08,26,13.80
2015,05,25,08,27,13.70
2015,05,25,08,28,13.70
2015,05,25,08,29,13.80
2015,05,25,08,30,13.80
2015,05,25,08,31,13.80
2015,05,25,08,32,13.80
2015,05,25,08,33,13.80
2015,05,25,08,34,13.80
2015,05,25,08,35,13.70
2015,05,25,08,36,13.70
2015,05,25,08,37,13.70
2015,05,25,08,38,13.70
2015,05,25,08,39,13.70
2015,05,25,08,40,13.70
2015,05,25,08,41,13.70
2015,05,25,08,42,13.80
2015,05,25,08,43,13.80
2015,05,25,08,44,13.80
2015,05,25,08,45,13.80
2015,05,25,08,46,13.80
2015,05,25,08,47,13.80
2015,05,25,08,48,13.80
2015,05,25,08,49,13.80
2015,05,25,08,50,13.80
2015,05,25,08,51,13.80
2015,05,25,08,52,13.80
2015,05,25,08,53,13.80
2015,05,25,08,54,13.80
2015,05,25,08,55,13.90
2015,05,25,08,56,13.90
2015,05,25,08,57,14.00
2015,05,25,08,58,14.10
2015,05,25,08,59,14.10
2015,05,25,09,00,14.20
2015,05,25,09,01,14.20
2015,05,25,09,02,14.30
2015,05,25,09,03,14.30
2015,05,25,09,04,14.40
2015,05,25,09,05,14.50
2015,05,25,09,06,14.50
2015,05,25,09,07,14.60
2015,05,25,09,08,14.60
2015,05,25,09,09,14.60
2015,05,25,09,10,14.60
2015,05,25,09,11,14.60
2015,05,25,09,12,14.60
2015,05,25,09,13,14.60
2015,05,25,09,14,14.60
2015,05,25,09,15,14.60
2015,05,25,09,16,14.60
2015,05,25,09,17,14.60
2015,05,25,09,18,14.60
2015,05,25,09,19,14.60
2015,05,25,09,20,14.60
2015,05,25,09,21,14.60
2015,05,25,09,22,14.60
2015,05,25,09,23,14.60
2015,05,25,09,24,14.60
2015,05,25,09,25,14.60
2015,05,25,09,26,14.60
2015,05,25,09,27,14.70
2015,05,25,09,28,14.70
2015,05,25,09,29,14.70
2015,05,25,09,30,14.80
2015,05,25,09,31,14.80
2015,05,25,09,32,14.80
2015,05,25,09,33,14.90
2015,05,25,09,34,14.90
2015,05,25,09,35,14.90
2015,05,25,09,36,15.00
2015,05,25,09,37,15.10
2015,05,25,09,38,15.10
2015,05,25,09,39,15.10
2015,05,25,09,40,15.10
2015,05,25,09,41,15.20
2015,05,25,09,42,15.10
2015,05,25,09,43,15.10
2015,05,25,09,44,15.10
2015,05,25,09,45,15.10
2015,05,25,09,46,15.00
2015,05,25,09,47,15.00
2015,05,25,09,48,14.90
2015,05,25,09,49,14.90
2015,05,25,09,50,14.90
2015,05,25,09,51,14.90
2015,05,25,09,52,14.90
2015,05,25,09,53,15.00
2015,05,25,09,54,15.00
2015,05,25,09,55,15.10
2015,05,25,09,56,15.10
2015,05,25,09,57,15.10
2015,05,25,09,58,15.10
2015,05,25,09,59,15.10
2015,05,25,10,00,15.10
2015,05,25,10,01,15.00
2015,05,25,10,02,15.00
2015,05,25,10,03,15.00
2015,05,25,10,04,15.00
2015,05,25,10,05,15.00
2015,05,25,10,06,15.00
2015,05,25,10,07,15.00
2015,05,25,10,08,15.00
2015,05,25,10,09,15.00
2015,05,25,10,10,15.10
2015,05,25,10,11,15.10
2015,05,25,10,12,15.20
2015,05,25,10,13,15.20
2015,05,25,10,14,15.30
2015,05,25,10,15,15.30
2015,05,25,10,16,15.30
2015,05,25,10,17,15.40
2015,05,25,10,18,15.40
2015,05,25,10,19,15.40
2015,05,25,10,20,15.40
2015,05,25,10,21,15.40
2015,05,25,10,22,15.40
2015,05,25,10,23,15.40
2015,05,25,10,24,15.40
2015,05,25,10,25,15.40
2015,05,25,10,26,15.40
2015,05,25,10,27,15.40
2015,05,25,10,28,15.40
2015,05,25,10,29,15.40
2015,05,25,10,30,15.40
2015,05,25,10,31,15.40
2015,05,25,10,32,15.40
2015,05,25,10,33,15.40
2015,05,25,10,34,15.40
2015,05,25,10,35,15.50
2015,05,25,10,36,15.50
2015,05,25,10,37,15.60
2015,05,25,10,38,15.60
2015,05,25,10,39,15.70
2015,05,25,10,40,15.70
2015,05,25,10,41,15.70
2015,05,25,10,42,15.80
2015,05,25,10,43,15.90
2015,05,25,10,44,15.90
2015,05,25,10,45,16.00
2015,05,25,10,46,16.10
2015,05,25,10,47,16.20
2015,05,25,10,48,16.20
2015,05,25,10,49,16.30
2015,05,25,10,50,16.40
2015,05,25,10,51,16.40
2015,05,25,10,52,16.40
2015,05,25,10,53,16.30
2015,05,25,10,54,16.30
2015,05,25,10,55,16.30
2015,05,25,10,56,16.30
2015,05,25,10,57,16.40
2015,05,25,10,58,16.40
2015,05,25,10,59,16.40
2015,05,25,11,00,16.50
2015,05,25,11,01,16.50
2015,05,25,11,02,16.60
2015,05,25,11,03,16.50
2015,05,25,11,04,16.50
2015,05,25,11,05,16.50
2015,05,25,11,06,16.50
2015,05,25,11,07,16.50
2015,05,25,11,08,16.40
2015,05,25,11,09,16.40
2015,05,25,11,10,16.50
2015,05,25,11,11,16.50
2015,05,25,11,12,16.50
2015,05,25,11,13,16.50
2015,05,25,11,14,16.50
2015,05,25,11,15,16.40
2015,05,25,11,16,16.50
2015,05,25,11,17,16.50
2015,05,25,11,18,16.50
2015,05,25,11,19,16.50
2015,05,25,11,20,16.50
2015,05,25,11,21,16.60
2015,05,25,11,22,16.60
2015,05,25,11,23,16.50
2015,05,25,11,24,16.50
2015,05,25,11,25,16.50
2015,05,25,11,26,16.50
2015,05,25,11,27,16.40
2015,05,25,11,28,16.40
2015,05,25,11,29,16.30
2015,05,25,11,30,16.20
2015,05,25,11,31,16.20
2015,05,25,11,32,16.20
2015,05,25,11,33,16.20
2015,05,25,11,34,16.20
2015,05,25,11,35,16.30
2015,05,25,11,36,16.30
2015,05,25,11,37,16.30
2015,05,25,11,38,16.30
2015,05,25,11,39,16.30
2015,05,25,11,40,16.30
2015,05,25,11,41,16.30
2015,05,25,11,42,16.30
2015,05,25,11,43,16.30
2015,05,25,11,44,16.30
2015,05,25,11,45,16.30
2015,05,25,11,46,16.20
2015,05,25,11,47,16.20
2015,05,25,11,48,16.20
2015,05,25,11,49,16.20
2015,05,25,11,50,16.20
2015,05,25,11,51,16.20
2015,05,25,11,52,16.30
2015,05,25,11,53,16.30
2015,05,25,11,54,16.30
2015,05,25,11,55,16.40
2015,05,25,11,56,16.40
2015,05,25,11,57,16.50
2015,05,25,11,58,16.60
2015,05,25,11,59,16.60
2015,05,25,12,00,16.70
2015,05,25,12,01,16.80
2015,05,25,12,02,16.90
2015,05,25,12,03,16.90
2015,05,25,12,04,16.90
2015,05,25,12,05,16.90
2015,05,25,12,06,16.90
2015,05,25,12,07,16.90
2015,05,25,12,08,16.90
2015,05,25,12,09,16.90
2015,05,25,12,10,16.90
2015,05,25,12,11,16.90
2015,05,25,12,12,17.00
2015,05,25,12,13,16.90
2015,05,25,12,14,17.00
2015,05,25,12,15,17.00
2015,05,25,12,16,17.10
2015,05,25,12,17,17.10
2015,05,25,12,18,17.20
2015,05,25,12,19,17.20
2015,05,25,12,20,17.30
2015,05,25,12,21,17.30
2015,05,25,12,22,17.30
2015,05,25,12,23,17.30
2015,05,25,12,24,17.30
2015,05,25,12,25,17.40
2015,05,25,12,26,17.40
2015,05,25,12,27,17.40
2015,05,25,12,28,17.40
2015,05,25,12,29,17.30
2015,05,25,12,30,17.30
2015,05,25,12,31,17.30
2015,05,25,12,32,17.30
2015,05,25,12,33,17.30
2015,05,25,12,34,17.30
2015,05,25,12,35,17.30
2015,05,25,12,36,17.30
2015,05,25,12,37,17.30
2015,05,25,12,38,17.30
2015,05,25,12,39,17.30
2015,05,25,12,40,17.30
2015,05,25,12,41,17.30
2015,05,25,12,42,17.30
2015,05,25,12,43,17.40
2015,05,25,12,44,17.50
2015,05,25,12,45,17.50
2015,05,25,12,46,17.60
2015,05,25,12,47,17.70
2015,05,25,12,48,17.70
2015,05,25,12,49,17.70
2015,05,25,12,50,17.80
2015,05,25,12,51,17.70
2015,05,25,12,52,17.70
2015,05,25,12,53,17.70
2015,05,25,12,54,17.70
2015,05,25,12,55,17.70
2015,05,25,12,56,17.80
2015,05,25,12,57,17.80
2015,05,25,12,58,17.80
2015,05,25,12,59,17.70
2015,05,25,13,00,17.60
2015,05,25,13,01,17.60
2015,05,25,13,02,17.70
2015,05,25,13,03,17.70
2015,05,25,13,04,17.70
2015,05,25,13,05,17.60
2015,05,25,13,06,17.60
2015,05,25,13,07,17.60
2015,05,25,13,08,17.60
2015,05,25,13,09,17.70
2015,05,25,13,10,17.80
2015,05,25,13,11,17.90
2015,05,25,13,12,18.00
2015,05,25,13,13,18.00
2015,05,25,13,14,18.10
2015,05,25,13,15,18.10
2015,05,25,13,16,18.20
2015,05,25,13,17,18.20
2015,05,25,13,18,18.20
2015,05,25,13,19,18.20
2015,05,25,13,20,18.20
2015,05,25,13,21,18.20
2015,05,25,13,22,18.20
2015,05,25,13,23,18.20
2015,05,25,13,24,18.20
2015,05,25,13,25,18.20
2015,05,25,13,26,18.20
2015,05,25,13,27,18.30
2015,05,25,13,28,18.30
2015,05,25,13,29,18.30
2015,05,25,13,30,18.30
2015,05,25,13,31,18.30
2015,05,25,13,32,18.30
2015,05,25,13,33,18.30
2015,05,25,13,34,18.40
2015,05,25,13,35,18.40
2015,05,25,13,36,18.40
2015,05,25,13,37,18.40
2015,05,25,13,38,18.30
2015,05,25,13,39,18.30
2015,05,25,13,40,18.30
2015,05,25,13,41,18.30
2015,05,25,13,42,18.30
2015,05,25,13,43,18.30
2015,05,25,13,44,18.30
2015,05,25,13,45,18.40
2015,05,25,13,46,18.40
2015,05,25,13,47,18.50
2015,05,25,13,48,18.60
2015,05,25,13,49,18.60
2015,05,25,13,50,18.70
2015,05,25,13,51,18.70
2015,05,25,13,52,18.70
2015,05,25,13,53,18.80
2015,05,25,13,54,18.80
2015,05,25,13,55,18.70
2015,05,25,13,56,18.70
2015,05,25,13,57,18.70
2015,05,25,13,58,18.70
2015,05,25,13,59,18.70
2015,05,25,14,00,18.80
2015,05,25,14,01,18.80
2015,05,25,14,02,18.80
2015,05,25,14,03,18.70
2015,05,25,14,04,18.60
2015,05,25,14,05,18.50
2015,05,25,14,06,18.50
2015,05,25,14,07,18.50
2015,05,25,14,08,18.60
2015,05,25,14,09,18.60
2015,05,25,14,10,18.60
2015,05,25,14,11,18.60
2015,05,25,14,12,18.60
2015,05,25,14,13,18.70
2015,05,25,14,14,18.70
2015,05,25,14,15,18.80
2015,05,25,14,16,18.90
2015,05,25,14,17,18.90
2015,05,25,14,18,18.90
2015,05,25,14,19,19.00
2015,05,25,14,20,19.00
2015,05,25,14,21,19.00
2015,05,25,14,22,19.00
2015,05,25,14,23,19.00
2015,05,25,14,24,18.90
2015,05,25,14,25,18.90
2015,05,25,14,26,18.90
2015,05,25,14,27,18.90
2015,05,25,14,28,18.90
2015,05,25,14,29,19.00
2015,05,25,14,30,19.00
2015,05,25,14,31,19.20
2015,05,25,14,32,19.20
2015,05,25,14,33,19.20
2015,05,25,14,34,19.20
2015,05,25,14,35,19.20
2015,05,25,14,36,19.20
2015,05,25,14,37,19.20
2015,05,25,14,38,19.20
2015,05,25,14,39,19.20
2015,05,25,14,40,19.20
2015,05,25,14,41,19.10
2015,05,25,14,42,19.10
2015,05,25,14,43,19.10
2015,05,25,14,44,19.00
2015,05,25,14,45,19.00
2015,05,25,14,46,19.00
2015,05,25,14,47,19.10
2015,05,25,14,48,19.10
2015,05,25,14,49,19.10
2015,05,25,14,50,19.10
2015,05,25,14,51,19.10
2015,05,25,14,52,19.20
2015,05,25,14,53,19.20
2015,05,25,14,54,19.20
2015,05,25,14,55,19.20
2015,05,25,14,56,19.30
2015,05,25,14,57,19.20
2015,05,25,14,58,19.20
2015,05,25,14,59,19.20
2015,05,25,15,00,19.20
2015,05,25,15,01,19.20
2015,05,25,15,02,19.10
2015,05,25,15,03,19.10
2015,05,25,15,04,19.00
2015,05,25,15,05,18.90
2015,05,25,15,06,18.90
2015,05,25,15,07,18.80
2015,05,25,15,08,18.70
2015,05,25,15,09,18.60
2015,05,25,15,10,18.50
2015,05,25,15,11,18.50
2015,05,25,15,12,18.40
2015,05,25,15,13,18.40
2015,05,25,15,14,18.40
2015,05,25,15,15,18.50
2015,05,25,15,16,18.60
2015,05,25,15,17,18.70
2015,05,25,15,18,18.80
2015,05,25,15,19,18.80
2015,05,25,15,20,18.90
2015,05,25,15,21,19.00
2015,05,25,15,22,19.10
2015,05,25,15,23,19.10
2015,05,25,15,24,19.10
2015,05,25,15,25,19.00
2015,05,25,15,26,19.00
2015,05,25,15,27,18.90
2015,05,25,15,28,18.90
2015,05,25,15,29,18.90
2015,05,25,15,30,19.00
2015,05,25,15,31,19.00
2015,05,25,15,32,19.10
2015,05,25,15,33,19.10
2015,05,25,15,34,19.10
2015,05,25,15,35,19.20
2015,05,25,15,36,19.30
2015,05,25,15,37,19.30
2015,05,25,15,38,19.30
2015,05,25,15,39,19.30
2015,05,25,15,40,19.30
2015,05,25,15,41,19.40
2015,05,25,15,42,19.40
2015,05,25,15,43,19.50
2015,05,25,15,44,19.50
2015,05,25,15,45,19.60
2015,05,25,15,46,19.60
2015,05,25,15,47,19.60
2015,05,25,15,48,19.60
2015,05,25,15,49,19.70
2015,05,25,15,50,19.70
2015,05,25,15,51,19.70
2015,05,25,15,52,19.70
2015,05,25,15,53,19.70
2015,05,25,15,54,19.60
2015,05,25,15,55,19.60
2015,05,25,15,56,19.60
2015,05,25,15,57,19.60
2015,05,25,15,58,19.60
2015,05,25,15,59,19.60
2015,05,25,16,00,19.60
2015,05,25,16,01,19.70
2015,05,25,16,02,19.80
2015,05,25,16,03,19.90
2015,05,25,16,04,20.00
2015,05,25,16,05,20.00
2015,05,25,16,06,20.10
2015,05,25,16,07,20.00
2015,05,25,16,08,20.00
2015,05,25,16,09,19.90
2015,05,25,16,10,19.80
2015,05,25,16,11,19.70
2015,05,25,16,12,19.60
2015,05,25,16,13,19.50
2015,05,25,16,14,19.40
2015,05,25,16,15,19.40
2015,05,25,16,16,19.40
2015,05,25,16,17,19.40
2015,05,25,16,18,19.40
2015,05,25,16,19,19.30
2015,05,25,16,20,19.30
2015,05,25,16,21,19.30
2015,05,25,16,22,19.40
2015,05,25,16,23,19.40
2015,05,25,16,24,19.40
2015,05,25,16,25,19.40
2015,05,25,16,26,19.30
2015,05,25,16,27,19.40
2015,05,25,16,28,19.40
2015,05,25,16,29,19.40
2015,05,25,16,30,19.40
2015,05,25,16,31,19.40
2015,05,25,16,32,19.40
2015,05,25,16,33,19.40
2015,05,25,16,34,19.40
2015,05,25,16,35,19.40
2015,05,25,16,36,19.30
2015,05,25,16,37,19.30
2015,05,25,16,38,19.30
2015,05,25,16,39,19.20
2015,05,25,16,40,19.20
2015,05,25,16,41,19.20
2015,05,25,16,42,19.30
2015,05,25,16,43,19.30
2015,05,25,16,44,19.40
2015,05,25,16,45,19.50
2015,05,25,16,46,19.50
2015,05,25,16,47,19.60
2015,05,25,16,48,19.60
2015,05,25,16,49,19.50
2015,05,25,16,50,19.50
2015,05,25,16,51,19.40
2015,05,25,16,52,19.30
2015,05,25,16,53,19.30
2015,05,25,16,54,19.20
2015,05,25,16,55,19.20
2015,05,25,16,56,19.20
2015,05,25,16,57,19.20
2015,05,25,16,58,19.20
2015,05,25,16,59,19.20
2015,05,25,17,00,19.20
2015,05,25,17,01,19.20
2015,05,25,17,02,19.20
2015,05,25,17,03,19.20
2015,05,25,17,04,19.20
2015,05,25,17,05,19.20
2015,05,25,17,06,19.20
2015,05,25,17,07,19.20
2015,05,25,17,08,19.30
2015,05,25,17,09,19.30
2015,05,25,17,10,19.30
2015,05,25,17,11,19.30
2015,05,25,17,12,19.20
2015,05,25,17,13,19.20
2015,05,25,17,14,19.20
2015,05,25,17,15,19.20
2015,05,25,17,16,19.10
2015,05,25,17,17,19.00
2015,05,25,17,18,19.00
2015,05,25,17,19,19.00